Content
SEND FEEDBACK

Daily
Averages
Monthly
Summary
United States of America

GREENFIELD, MASSACHUSETTS


Home > North America > United States > Massachusetts
Elevation: 190 feet     Latitude: 42 37N     Longitude: 072 33W

WEATHER
 
SELECT A DAY
Number of Records: 217,946;   Date Range: 7/1/96 - 12/27/14
 
SHARE

PRINT THIS DATA

[ ← Previous Day ]
WEATHER ALMANAC - MAY 14, 2014
[ Next Day → ]
[ °C ]   °F
Weather ElementAverageHighLow
Temperature60.1 °F73.9 °F (5:52 pm)46 °F (5:52 am)
Dewpoint43.3 °F55 °F (11:01 pm)35.1 °F (9:52 am)
Humidity57.5 %83 % (5:52 am)27 % (1:52 pm)
Barometer30.27 in30.32 in (7:52 am)30.22 in (5:52 pm)
Wind Speed5.5 mph9.2 mph (8:52 pm)
Weather ElementAverage
Visibility10 mi
Wind DirectionNE (46.5 °)

Weather ElementTotal
Precipitation---
Heating Degree Days5.1 (Base 65)
Growing Degree Days10 (Base 50)
Averaged from 23 records on May 14, 2014
WEATHER CONDITIONS BREAKOUT
WIND DIRECTION BREAKOUT
WEATHER BY HOUR - MAY 14, 2014
[ °C ]   °F
Local TimeTemperatureDewpointHumidityBarometerVisibilityWind DirectionWind SpeedGust SpeedPrecipitationEventsConditions
1:52 AM48.9 °F39.0 °F69 %30.31 in10.0 miCalmOvercast
2:52 AM48.0 °F39.0 °F71 %30.31 in10.0 miNorthOvercast
3:52 AM48.0 °F39.9 °F74 %30.30 in10.0 miNorthMostly Cloudy
4:52 AM46.9 °F41.0 °F80 %30.31 in10.0 miCalmOvercast
5:52 AM46.0 °F41.0 °F83 %30.30 in10.0 miNorthScattered Clouds
6:52 AM48.0 °F37.0 °F66 %30.29 in10.0 miNorthMostly Cloudy
7:52 AM50.0 °F37.0 °F61 %30.32 in10.0 miNorthMostly Cloudy
8:52 AM53.1 °F37.0 °F55 %30.31 in10.0 miSSE (160°)4.6 mphClear
9:52 AM54.0 °F35.1 °F49 %30.30 in10.0 miNorthClear
11:52 AM61.0 °F36.0 °F39 %30.30 in10.0 miNorthClear
12:52 PM66.9 °F37.9 °F34 %30.28 in10.0 miNorthClear
1:52 PM72.0 °F36.0 °F27 %30.26 in10.0 miNorthMostly Cloudy
2:52 PM73.0 °F39.0 °F29 %30.25 in10.0 miNorthOvercast
3:52 PM73.0 °F39.9 °F30 %30.23 in10.0 miNorthOvercast
5:52 PM73.9 °F43.0 °F33 %30.22 in10.0 miNorthOvercast
6:52 PM72.0 °F43.0 °F35 %30.23 in10.0 miSSW (200°)5.8 mphOvercast
7:52 PM70.0 °F48.0 °F46 %30.23 in10.0 miSouth (180°)6.9 mphOvercast
8:52 PM66.0 °F52.0 °F60 %30.25 in10.0 miSouth (180°)9.2 mphOvercast
9:52 PM63.0 °F54.0 °F72 %30.27 in10.0 miNorthOvercast
11:01 PM63.0 °F55.0 °F75 %30.26 in10.0 miSouth (170°)9.2 mphOvercast
11:23 PM62.1 °F55.0 °F78 %30.26 in10.0 miNorthOvercast
11:44 PM62.1 °F55.0 °F78 %30.26 in10.0 miNorthOvercast
11:52 PM62.1 °F55.0 °F78 %30.27 in10.0 miSouth (180°)8.1 mphOvercast
Hourly data recorded from KORE, located miles away from Greenfield, Massachusetts







STORIES FROM OUR PARTNERS